Orbital Elements at Epoch 2459200.5 (2020-Dec-17.0) TDB
Reference: JPL 28 (heliocentric ecliptic J2000)
Element | Value | Uncertainty (1-sigma) | Units |
e | .113975874194296 | 4.2306e-08 | |
a | 2.542028758717056 | 1.2748e-08 | au |
q | 2.252298808715238 | 1.077e-07 | au |
i | 15.60291411603359 | 3.6355e-06 | deg |
node | 127.0530144369786 | 1.7231e-05 | deg |
peri | 270.912084634586 | 2.3054e-05 | deg |
M | 85.63704970907854 | 1.5894e-05 | deg |
tp | 2458848.349497553187 (2019-Dec-30.84949755) | 6.4874e-05 | TDB |
period | 1480.366048474615 4.05 | 1.1136e-05 3.049e-08 | d yr |
n | .2431830967556624 | 1.8293e-09 | deg/d |
Q | 2.831758708718874 | 1.4201e-08 | au |
|
| | Orbit Determination Parameters
Additional Information
|